Location: Cul de Sac
(18.0387°N, 63.0654°W)
Time: 08:07:24
(UTC+00:00)

Cosmos 2058 - Pass Details

Date: 29 October 2020
Orbit: 562 x 583 km, 82.5° (Epoch: 28 November)

Event Time Altitude Azimuth Distance (km) Brightness Sun altitude
Rises 22:25:48 0° 10° (N) 2,747 6.2 -11.2°
Reaches altitude 10° 22:28:11 10° 22° (NNE) 1,852 5.2 -11.7°
Maximum altitude 22:31:46 30° 83° (E) 1,034 3.6 -12.6°
Drops below altitude 10° 22:35:21 10° 145° (SE) 1,857 5.3 -13.4°
Sets 22:37:44 0° 156° (SSE) 2,756 6.3 -14.0°
